FW7733 Weather Reports


time (UTC)temp
C
wind
direction
speed
KPH
gust
KPH
rain 1hr
cm
rain 24hr
cm
rain mn
cm
humidity
%
barometer
mb
20260506180034 13 254 1.6 6.4 0.00 0.38 0.36 71 1009.2
20260506174528 13 271 4.8 11.3 0.00 0.38 0.36 71 1009.0
20260506173034 13 232 6.4 20.9 0.00 0.38 0.36 70 1008.7
20260506171532 13 317 4.8 16.1 0.00 0.38 0.36 70 1008.6
20260506170028 13 263 4.8 14.5 0.00 0.38 0.36 70 1008.5
20260506164529 13 310 3.2 16.1 0.00 0.43 0.36 73 1008.5
20260506163050 12 251 6.4 12.9 0.00 0.43 0.36 77 1008.6
20260506161527 11 207 6.4 17.7 0.00 0.43 0.36 80 1008.8
20260506160031 12 201 1.6 12.9 0.00 0.43 0.36 80 1008.8
20260506154532 12 227 3.2 11.3 0.00 0.43 0.36 80 1008.9
20260506153028 11 196 4.8 12.9 0.00 0.43 0.36 83 1009.0
20260506151528 11 288 3.2 11.3 0.00 0.43 0.36 82 1008.8
20260506150029 11 273 4.8 11.3 0.00 0.43 0.36 82 1009.0
20260506144530 11 272 3.2 9.7 0.00 0.43 0.36 83 1008.8
20260506143035 11 263 3.2 9.7 0.00 0.43 0.36 85 1008.7
20260506141536 11 214 3.2 8.0 0.00 0.43 0.36 85 1008.8
20260506140028 11 223 3.2 9.7 0.00 0.43 0.36 85 1008.7
20260506134527 11 138 0.0 6.4 0.00 0.43 0.36 87 1008.6
20260506133030 11 279 4.8 17.7 0.00 0.43 0.36 85 1008.6
20260506131530 11 240 4.8 11.3 0.00 0.43 0.36 88 1008.4
20260506130030 11 300 3.2 11.3 0.00 0.43 0.36 89 1008.6
20260506124529 10 308 4.8 12.9 0.05 0.43 0.36 89 1008.5
20260506123033 10 188 4.8 12.9 0.20 0.43 0.36 90 1008.1
20260506121538 10 208 1.6 17.7 0.25 0.43 0.36 90 1007.8
20260506120030 10 296 6.4 19.3 0.23 0.41 0.33 89 1007.7
20260506114538 11 268 9.7 27.4 0.23 0.36 0.28 87 1007.5
20260506113028 12 236 3.2 9.7 0.05 0.18 0.10 88 1007.2
20260506111536 12 205 3.2 6.4 0.03 0.18 0.08 86 1007.0
20260506110031 12 231 1.6 4.8 0.00 0.15 0.08 85 1006.8
20260506104532 13 202 1.6 8.0 0.00 0.13 0.05 84 1006.7
20260506103029 13 221 1.6 4.8 0.00 0.13 0.05 85 1006.7
20260506101533 12 211 1.6 4.8 0.00 0.13 0.05 84 1006.7
20260506100030 12 209 3.2 4.8 0.00 0.13 0.05 85 1006.7
20260506094535 12 203 3.2 4.8 0.00 0.13 0.05 85 1006.6
20260506093031 12 0 0.0 0.0 0.00 0.10 0.03 84 1006.4
20260506091528 12 0 0.0 3.2 0.00 0.10 0.03 85 1006.6
20260506090027 12 194 0.0 4.8 0.00 0.10 0.03 86 1006.5
20260506084529 12 216 1.6 4.8 0.00 0.10 0.03 88 1006.4
20260506083032 12 216 0.0 4.8 0.00 0.10 0.03 89 1006.4
20260506081528 11 0 0.0 3.2 0.00 0.08 0.00 90 1006.4
20260506073029 11 0 0.0 0.0 0.00 0.08 0.00 90 1006.3
20260506071532 11 0 0.0 0.0 0.00 0.08 0.00 91 1006.4
20260506061533 9 241 0.0 3.2 0.00 0.08 0.00 93 1006.3
20260506044539 8 187 3.2 6.4 0.00 0.08 0.00 95 1006.4
20260506043027 8 200 1.6 4.8 0.00 0.08 0.00 96 1006.5
20260506041529 8 229 1.6 4.8 0.00 0.08 0.00 95 1006.6
20260506040050 8 272 0.0 3.2 0.00 0.08 0.00 95 1006.6
20260506034528 8 194 0.0 3.2 0.00 0.08 0.00 95 1006.7
20260506033030 8 194 1.6 3.2 0.00 0.08 0.00 95 1007.0
20260506031541 8 194 1.6 3.2 0.00 0.08 0.00 95 1007.2
20260506030028 8 0 0.0 3.2 0.00 0.08 0.00 95 1007.2
20260506024529 8 198 1.6 3.2 0.00 0.08 0.00 95 1007.4
20260506023032 9 0 1.6 4.8 0.00 0.08 0.00 95 1007.4
20260506021528 9 198 0.0 3.2 0.00 0.08 0.00 95 1007.7
20260506020029 9 0 0.0 3.2 0.00 0.08 0.00 94 1007.8
20260506014532 9 0 0.0 4.8 0.00 0.08 0.00 95 1007.8
20260506013029 9 204 1.6 6.4 0.00 0.08 0.00 94 1008.1
20260506011530 10 0 0.0 3.2 0.00 0.08 0.00 95 1008.2
20260506010030 10 0 0.0 4.8 0.00 0.08 0.00 94 1008.2
20260506004528 10 0 1.6 3.2 0.00 0.08 0.00 95 1008.4
20260506003028 10 194 0.0 3.2 0.00 0.08 0.00 94 1008.7
20260506001531 10 194 1.6 6.4 0.00 0.08 0.00 95 1008.9
20260506000032 10 0 0.0 3.2 0.00 0.08 0.00 94 1009.1
20260505234529 10 0 0.0 1.6 0.00 0.08 0.00 94 1009.4
20260505233029 10 0 1.6 4.8 0.00 0.08 0.00 94 1009.2
20260505231541 10 0 0.0 6.4 0.00 0.08 0.00 94 1009.3
20260505230033 10 0 1.6 4.8 0.00 0.08 0.00 94 1009.3
20260505224530 10 0 0.0 3.2 0.00 0.08 0.00 94 1009.4
20260505223032 10 0 0.0 3.2 0.00 0.08 0.00 93 1009.5
20260505221530 10 0 0.0 1.6 0.00 0.08 0.00 93 1009.4
20260505220035 10 214 0.0 1.6 0.00 0.08 0.00 93 1009.5
20260505214535 10 0 0.0 3.2 0.03 0.08 0.08 93 1009.7
20260505213033 10 0 0.0 3.2 0.03 0.08 0.08 93 1009.7
20260505211528 11 214 1.6 4.8 0.03 0.08 0.08 92 1009.8
20260505210030 11 0 0.0 3.2 0.00 0.05 0.05 92 1009.7
20260505204534 11 252 0.0 4.8 0.00 0.03 0.03 91 1010.0
20260505203032 10 0 0.0 3.2 0.00 0.03 0.03 91 1009.9
20260505201528 10 209 1.6 4.8 0.00 0.03 0.03 91 1009.7
20260505200039 10 0 0.0 6.4 0.00 0.03 0.03 91 1009.7
20260505194528 11 192 3.2 6.4 0.00 0.03 0.03 90 1009.4
20260505193030 11 0 0.0 3.2 0.00 0.03 0.03 90 1009.3
20260505191531 11 146 0.0 3.2 0.00 0.03 0.03 90 1009.4
20260505190036 11 0 0.0 4.8 0.00 0.03 0.03 90 1009.3
20260505184528 12 219 3.2 4.8 0.00 0.03 0.03 89 1009.2
20260505183031 12 0 0.0 3.2 0.00 0.03 0.03 87 1009.1
20260505181529 12 181 1.6 4.8 0.00 0.03 0.03 87 1009.1